Location: Unspecified
(46.1574°N, 0.0000°E)
Time: 16:53:41
(UTC+00:00)

SHIYUAN - Visible Passes

Search period start: 04 April 2026 00:00
Search period end: 14 April 2026 00:00
Orbit: 771 x 805 km, 98.7° (Epoch: 29 March)

Date Brightness Start Highest point End Pass type
(mag) Time Alt. Az. Time Alt. Az. Time Alt. Az.
4 Apr 9.2 19:45:53 10° WSW 19:47:43 12° W 19:49:33 10° WNW visible
5 Apr 8.8 19:13:15 10° SW 19:17:12 22° W 19:21:11 10° NW visible
8 Apr 8.8 19:22:51 10° SW 19:26:23 19° W 19:29:58 10° NW visible
11 Apr 9.0 19:32:33 10° SW 19:35:34 16° W 19:38:38 10° NW visible
